Regional Weather Roundup
Issued by NWS

Home | Current Version | Previous Version | Text Only | Print | Product List | Glossary On
Versions: 1 2 3 4 5 6 7 8 9 10 11 12 13 14 15 16 17 18 19 20 21 22 23 24 25 26 27 28 29 30 31 32 33 34 35 36 37 38 39 40 41 42 43 44 45 46 47 48 49 50
000
ASUS44 KOUN 311700
RWROK

WEATHER ROUNDUP FOR OKLAHOMA
NATIONAL WEATHER SERVICE NORMAN OK
1200 PM CDT WED AUG 31 2016

NOTE: "FAIR" INDICATES FEW OR NO CLOUDS BELOW 12,000 FEET WITH NO
      SIGNIFICANT WEATHER AND/OR OBSTRUCTIONS TO VISIBILITY.

OKZ001>007-009>012-014-015-017-311800-
NORTHWEST OKLAHOMA AND THE PANHANDLE

CITY           SKY/WX    TMP DP  RH WIND       PRES   REMARKS
GAGE           PTSUNNY   79  69  71 N9        30.17S
GUYMON         CLOUDY    71  63  75 S3        30.22F
$$

OKZ016-021>023-033>039-044-045-311800-
SOUTHWEST OKLAHOMA

CITY           SKY/WX    TMP DP  RH WIND       PRES   REMARKS
LAWTON/REGL    SUNNY     89  69  51 N5        30.07F HX  93
LAWTON/FT SILL SUNNY     87  72  59 N1        30.06F HX  94
FREDERICK      SUNNY     85  72  65 CALM      30.06F HX  91
CLINTON        CLOUDY    82  70  66 VRB7      30.16R
HOBART         MOSUNNY   85  70  60 N7        30.12S
$$

OKZ018>020-024>031-311800-
CENTRAL OKLAHOMA

CITY           SKY/WX    TMP DP  RH WIND       PRES   REMARKS
OKLAHOMA CITY  MOSUNNY   89  68  49 VRB6      30.08F HX  93
OKC/WILEY POST SUNNY     85  69  58 CALM      30.09F
OKC/TINKER AFB MOSUNNY   85  69  57 N3        30.08S
STILLWATER     SUNNY     86  71  60 CALM      30.08F HX  91
GUTHRIE        SUNNY     84  72  67 VRB5      30.09S
$$

OKZ008-013-054>072-311800-
NORTHEAST OKLAHOMA

CITY           SKY/WX    TMP DP  RH WIND       PRES   REMARKS
TULSA          CLOUDY    84  73  69 E9        30.07S HX  90
TULSA/JONES    PTSUNNY   85  77  77 NE8       30.07F HX  95
PONCA CITY     PTSUNNY   82  70  66 VRB5      30.10S
BARTLESVILLE   MOSUNNY   86  72  62 SW8       30.08F HX  92
MUSKOGEE       MOSUNNY   88  74  63 NE15      30.06F HX  96
$$

OKZ032-040>043-046>053-073>077-311800-
SOUTH CENTRAL/SOUTHEAST OKLAHOMA

CITY           SKY/WX    TMP DP  RH WIND       PRES   REMARKS
MCALESTER      MOSUNNY   88  70  55 CALM      30.05F HX  93
$$





USA.gov is the U.S. government's official web portal to all federal, state and local government web resources and services.